Date String (YYYY-MM-DD hh:mm:ss) UTC,Instrument flags,Ambient pressure (hPa),Sample flow (lpm),Bypass flow (lpm),Sample temperature (°C),Ambient temperature (°C),ASC tube jacket temperature (°C),LED temperature (°C),Box temperature (°C),Sample RH (%),Span deviation,Mass concentration (μg/m³),Mass concentration (μg/m³),Mass concentration (μg/m³)
DateTimeUTC,F1_M11,P_M11,Q1_M11,Q2_M11,T1_M11,T2_M11,T3_M11,T4_M11,T5_M11,U1_M11,ZSPAN_M11,X0_M11,X2_M11,X1_M11
2022-01-26 19:00:00,,0823.7,5.00,0.00,23.5,22.7,00.0,32.4,25.3,08.3,0000.0,0007.15,0004.81,0004.57
2022-01-26 19:01:00,,0823.6,5.01,0.00,23.5,22.7,00.0,32.4,25.3,08.3,0000.0,0007.56,0004.94,0004.69
2022-01-26 19:02:00,,0823.6,5.00,0.00,23.5,22.7,00.0,32.4,25.3,08.3,0000.0,0008.10,0005.07,0004.80
2022-01-26 19:03:00,,0823.6,4.98,0.00,23.5,22.7,00.0,32.4,25.3,08.4,0000.0,0008.16,0005.15,0004.89
2022-01-26 19:04:00,,0823.7,5.00,0.00,23.5,22.7,00.0,32.4,25.3,08.2,0000.0,0008.23,0005.22,0004.95
2022-01-26 19:05:00,,0823.6,5.01,0.00,23.5,22.7,00.0,32.4,25.3,08.4,0000.0,0008.33,0005.31,0005.02
2022-01-26 19:06:00,,0823.5,5.00,0.00,23.5,22.7,00.0,32.4,25.3,08.4,0000.0,0008.84,0005.41,0005.10
2022-01-26 19:07:00,,0823.4,4.99,0.00,23.5,22.7,00.0,32.4,25.3,08.2,0000.0,0008.89,0005.47,0005.16
2022-01-26 19:08:00,,0823.3,4.99,0.00,23.5,22.7,00.0,32.4,25.3,08.1,0000.0,0008.87,0005.48,0005.20
2022-01-26 19:09:00,,0823.3,5.00,0.00,23.5,22.7,00.0,32.4,25.3,08.1,0000.0,0009.26,0005.45,0005.21
2022-01-26 19:10:00,,0823.3,4.99,0.00,23.5,22.7,00.0,32.4,25.3,08.2,0000.0,0009.51,0005.42,0005.20
2022-01-26 19:11:00,,0823.3,4.99,0.00,23.5,22.7,00.0,32.4,25.3,08.2,0000.0,0009.59,0005.38,0005.16
2022-01-26 19:12:00,,0823.4,5.03,0.00,23.5,22.7,00.0,32.4,25.3,08.1,0000.0,0009.35,0005.34,0005.15
2022-01-26 19:13:00,,0823.3,5.00,0.00,23.5,22.7,00.0,32.4,25.3,08.1,0000.0,0009.07,0005.32,0005.12
2022-01-26 19:14:00,,0823.3,4.99,0.00,23.5,22.7,00.0,32.4,25.3,08.1,0000.0,0009.03,0005.31,0005.11
2022-01-26 19:15:00,,0823.3,5.00,0.00,23.5,22.7,00.0,32.5,25.3,08.1,0000.0,0009.01,0005.29,0005.10
2022-01-26 19:16:00,,0823.3,5.00,0.00,23.5,22.7,00.0,32.4,25.3,08.1,0000.0,0009.28,0005.28,0005.09
2022-01-26 19:17:00,,0823.4,5.00,0.00,23.5,22.7,00.0,32.4,25.3,08.2,0000.0,0008.92,0005.25,0005.08
2022-01-26 19:18:00,,0823.4,5.00,0.00,23.5,22.7,00.0,32.4,25.2,08.3,0000.0,0008.93,0005.26,0005.08
2022-01-26 19:19:00,,0823.4,4.99,0.00,23.5,22.7,00.0,32.4,25.2,08.2,0000.0,0009.01,0005.30,0005.09
2022-01-26 19:20:00,,0823.3,5.02,0.00,23.5,22.7,00.0,32.4,25.2,08.3,0000.0,0008.63,0005.33,0005.11
2022-01-26 19:21:00,,0823.3,4.99,0.00,23.5,22.7,00.0,32.4,25.2,08.3,0000.0,0008.34,0005.36,0005.14
2022-01-26 19:22:00,,0823.3,4.99,0.00,23.5,22.7,00.0,32.4,25.3,08.2,0000.0,0008.25,0005.38,0005.16
2022-01-26 19:23:00,,0823.3,5.00,0.00,23.5,22.7,00.0,32.4,25.3,08.1,0000.0,0008.28,0005.41,0005.17
2022-01-26 19:24:00,,0823.2,5.00,0.00,23.5,22.7,00.0,32.4,25.3,07.9,0000.0,0008.19,0005.40,0005.17
2022-01-26 19:25:00,,0823.2,4.99,0.00,23.5,22.7,00.0,32.4,25.3,08.0,0000.0,0008.20,0005.40,0005.17
2022-01-26 19:26:00,,0823.3,5.00,0.00,23.5,22.7,00.0,32.4,25.3,08.1,0000.0,0008.28,0005.44,0005.18
2022-01-26 19:27:00,,0823.4,5.02,0.00,23.5,22.7,00.0,32.5,25.3,08.2,0000.0,0008.01,0005.43,0005.18
2022-01-26 19:28:00,,0823.4,5.00,0.00,23.5,22.8,00.0,32.4,25.3,08.2,0000.0,0007.95,0005.44,0005.19
2022-01-26 19:29:00,,0823.4,4.99,0.00,23.6,22.8,00.0,32.4,25.3,08.0,0000.0,0007.89,0005.42,0005.18
2022-01-26 19:30:00,,0823.3,4.99,0.00,23.6,22.8,00.0,32.5,25.4,08.1,0000.0,0007.81,0005.40,0005.18
2022-01-26 19:31:00,,0823.3,5.01,0.00,23.6,22.8,00.0,32.5,25.4,08.2,0000.0,0007.80,0005.41,0005.18
2022-01-26 19:32:00,,0823.2,5.01,0.00,23.6,22.9,00.0,32.5,25.4,08.2,0000.0,0007.81,0005.40,0005.18
2022-01-26 19:33:00,,0823.2,4.99,0.00,23.6,22.9,00.0,32.5,25.5,08.3,0000.0,0007.86,0005.41,0005.17
2022-01-26 19:34:00,,0823.3,4.99,0.00,23.6,22.9,00.0,32.5,25.5,08.4,0000.0,0007.92,0005.42,0005.17
2022-01-26 19:35:00,,0823.3,5.01,0.00,23.7,22.9,00.0,32.5,25.5,08.3,0000.0,0007.97,0005.43,0005.17
2022-01-26 19:36:00,,0823.3,4.99,0.00,23.7,23.0,00.0,32.5,25.5,08.2,0000.0,0007.94,0005.44,0005.18
2022-01-26 19:37:00,,0823.3,5.00,0.00,23.7,23.0,00.0,32.5,25.5,08.3,0000.0,0007.93,0005.44,0005.19
2022-01-26 19:38:00,,0823.2,5.01,0.00,23.7,23.0,00.0,32.6,25.6,08.3,0000.0,0007.90,0005.43,0005.19
2022-01-26 19:39:00,,0823.2,4.99,0.00,23.7,23.0,00.0,32.6,25.6,08.2,0000.0,0008.09,0005.41,0005.17
2022-01-26 19:40:00,,0823.2,5.01,0.00,23.8,23.1,00.0,32.6,25.6,08.2,0000.0,0008.36,0005.41,0005.17
2022-01-26 19:41:00,,0823.2,5.01,0.00,23.8,23.1,00.0,32.6,25.6,08.2,0000.0,0008.48,0005.41,0005.16
2022-01-26 19:42:00,,0823.2,5.00,0.00,23.8,23.1,00.0,32.6,25.6,08.5,0000.0,0008.48,0005.37,0005.14
2022-01-26 19:43:00,,0823.2,5.00,0.00,23.8,23.1,00.0,32.6,25.6,08.3,0000.0,0008.58,0005.39,0005.15
2022-01-26 19:44:00,,0823.1,4.99,0.00,23.9,23.1,00.0,32.7,25.7,08.3,0000.0,0008.58,0005.37,0005.14
2022-01-26 19:45:00,,0823.1,5.02,0.00,23.9,23.1,00.0,32.7,25.7,08.5,0000.0,0008.87,0005.34,0005.14
2022-01-26 19:46:00,,0823.1,4.99,0.00,23.9,23.1,00.0,32.7,25.7,08.5,0000.0,0008.97,0005.33,0005.13
2022-01-26 19:47:00,,0823.1,5.01,0.00,23.9,23.2,00.0,32.7,25.7,08.2,0000.0,0008.94,0005.31,0005.12
2022-01-26 19:48:00,,0823.1,4.99,0.00,23.9,23.2,00.0,32.7,25.7,08.1,0000.0,0008.91,0005.28,0005.12
2022-01-26 19:49:00,,0823.1,5.01,0.00,23.9,23.1,00.0,32.8,25.8,08.0,0000.0,0008.91,0005.26,0005.10
2022-01-26 19:50:00,,0823.1,5.00,0.00,23.9,23.1,00.0,32.8,25.7,08.0,0000.0,0008.80,0005.30,0005.11
2022-01-26 19:51:00,,0823.1,4.99,0.00,23.9,23.1,00.0,32.8,25.7,08.3,0000.0,0008.60,0005.31,0005.12
2022-01-26 19:52:00,,0823.0,5.03,0.00,23.9,23.2,00.0,32.8,25.7,07.9,0000.0,0008.48,0005.32,0005.10
2022-01-26 19:53:00,,0823.0,4.99,0.00,23.9,23.2,00.0,32.8,25.7,08.1,0000.0,0008.42,0005.31,0005.09
2022-01-26 19:54:00,,0823.0,5.00,0.00,24.0,23.2,00.0,32.8,25.7,08.1,0000.0,0008.33,0005.30,0005.07
2022-01-26 19:55:00,,0822.9,5.00,0.00,24.0,23.2,00.0,32.8,25.9,08.2,0000.0,0008.30,0005.30,0005.05
2022-01-26 19:56:00,,0822.9,5.02,0.00,24.0,23.2,00.0,32.8,25.9,08.4,0000.0,0007.99,0005.33,0005.08
2022-01-26 19:57:00,,0823.0,4.99,0.00,24.0,23.2,00.0,32.9,25.9,08.4,0000.0,0007.91,0005.36,0005.09
2022-01-26 19:58:00,,0822.9,5.00,0.00,24.0,23.2,00.0,32.9,25.8,08.5,0000.0,0008.00,0005.40,0005.12
2022-01-26 19:59:00,,0823.0,4.99,0.00,24.0,23.2,00.0,32.9,25.8,08.4,0000.0,0008.02,0005.43,0005.13
